Weather Roundup
Issued by NWS

Home | Current Version | Previous Version | Graphics & Text | Print | Product List | Glossary Off
Versions: 1 2 3 4 5 6 7 8 9 10 11 12 13 14 15 16 17 18 19 20 21 22 23 24 25 26 27 28 29 30 31 32 33 34 35 36 37 38 39 40 41 42 43 44 45 46 47 48 49 50

000
NZUS93 KARX 010810
HRRWXR

CURRENT HOURLY OBSERVATIONS ACROSS
MUCH OF THE UPPER MISSISSIPPI VALLEY
NATIONAL WEATHER SERVICE LA CROSSE WI
300 AM CDT FRI AUG 01 2014


...SOUTHEAST MINNESOTA...


CITY           SKY/WX    TMP DP  RH WIND       PRES   REMARKS
ROCHESTER      CLEAR     60  55  83 SW7       30.07R
ROCHESTER/MAYO FAIR      64  55  72 CALM      30.05S
WINONA         CLEAR     59  57  94 CALM      30.03R
AUSTIN         CLEAR     57  55  94 CALM      30.06S
ALBERT LEA     CLEAR     61  57  88 CALM      30.06S
DODGE CENTER   CLEAR     57  55  94 SW7       30.06R
PRESTON        CLEAR     61  58  89 SW5       30.06S
OWATONNA       CLEAR     57  54  88 CALM      30.05S
FARIBAULT      CLEAR     61  54  77 CALM      30.04S
$$

...ELSEWHERE IN MINNESOTA...


CITY           SKY/WX    TMP DP  RH WIND       PRES   REMARKS
MINNEAPOLIS    CLEAR     68  60  75 S3        30.02R
INTNL FALLS    CLEAR     48  47  96 CALM      30.01S
DULUTH         PTCLDY    56  52  86 CALM      30.01F
RED WING       CLEAR     59  57  94 CALM      30.02R
REDWOOD FALLS  CLEAR     61  56  83 CALM      30.04S
MANKATO        CLEAR     61  54  77 S3        30.04S
WORTHINGTON    CLEAR     59  55  88 S3        30.08S
FAIRMONT       CLEAR     61  54  77 CALM      30.06S
$$

...SOUTHWEST WISCONSIN...


CITY           SKY/WX    TMP DP  RH WIND       PRES   REMARKS
LA CROSSE      CLEAR     65  62  90 S6        30.02S
PRAIRIE DU CHI CLEAR     58  56  93 CALM      30.04S
BOSCOBEL       PTCLDY    58  57  97 SW3       30.05R
LONE ROCK      FOG       59  55  87 CALM      30.04S VSB 1/4
PLATTEVILLE    CLEAR     62  58  88 CALM      30.07S
FORT MC COY    CLEAR     54  52  95 CALM      30.03S
CAMP DOUGLAS   PTCLDY    55  55 100 CALM      30.02S
VIROQUA        FAIR      61  57  87 W3        30.05S
WIS DELLS      CLEAR     58  56  92 CALM      30.03S
$$

...ELSEWHERE IN WISCONSIN...


CITY           SKY/WX    TMP DP  RH WIND       PRES   REMARKS
MILWAUKEE      PTCLDY    67  58  72 SW5       30.03R
MADISON        CLEAR     61  57  87 CALM      30.04R
GREEN BAY      CLEAR     59  57  93 CALM      30.00S
EAU CLAIRE     PTCLDY    63  60  90 CALM      30.01S
BLACK RVR FLS  FAIR      59  59 100 S3        30.01S
MEDFORD        FOG       56  56 100 CALM      30.02S VSB 3/4
WAUSAU         PTCLDY    60  59  96 CALM      30.01S
WIS RAPIDS     MOCLDY    60  58  92 S3        30.03R
MARSHFIELD     PTCLDY    63  58  83 W7        30.02R
RICE LAKE      MOCLDY    58  57  95 CALM      30.03R FOG
$$

...NORTHEAST IOWA...


CITY           SKY/WX    TMP DP  RH WIND       PRES   REMARKS
WATERLOO       CLEAR     59  57  93 CALM      30.04F
DUBUQUE        CLEAR     59  57  93 CALM      30.06S
DECORAH        PTCLDY    61  55  82 CALM      30.05S
MASON CITY     CLEAR     60  58  92 W6        30.08R
CHARLES CITY   CLEAR     57  55  94 W3        30.06S
OELWEIN        CLEAR     57  55  94 CALM      30.07S
$$

...ELSEWHERE IN IOWA...


CITY           SKY/WX    TMP DP  RH WIND       PRES   REMARKS
DES MOINES     PTCLDY    64  60  87 CALM      30.06R
IOWA CITY      PTCLDY    62  60  93 CALM      30.06S
FORT DODGE     CLOUDY    57  55  94 CALM      30.07S VSB 1/2
MARSHALLTOWN   CLEAR     59  57  93 N3        30.05F
CEDAR RAPIDS   CLEAR     62  60  93 CALM      30.05S
$$

...NORTHERN ILLINOIS...


CITY           SKY/WX    TMP DP  RH WIND       PRES   REMARKS
CHICAGO-OHARE  CLEAR     66  58  75 W6        30.05R
DUPAGE         CLEAR     61  59  93 S3        30.06R
CHICAGO-MIDWAY PTCLDY    70  62  76 SW6       30.05S
MOLINE         MOCLDY    67  61  81 CALM      30.05S
ROCKFORD       PTCLDY    61  57  87 S3        30.07S
STERLING       PTCLDY    61  57  88 CALM      30.06S
PEORIA         CLOUDY    68  62  81 CALM      30.07S
$$

NOTE: "FAIR" INDICATES FEW OR NO CLOUDS BELOW 12,000 FEET WITH NO
SIGNIFICANT WEATHER AND/OR OBSTRUCTIONS TO VISIBILITY. WIND
SPEEDS ARE IN MILES-PER-HOUR.



USA.gov is the U.S. government's official web portal to all federal, state and local government web resources and services.